Location: Breungeshain
(50.5000°N, 9.2000°E)
Time: 09:49:04
(UTC+00:00)

ISS - Pass Details

Date: 20 May 2017
Orbit: 402 x 409 km, 51.6° (Epoch: 24 May)

Event Time Altitude Azimuth Distance (km) Brightness Sun altitude
Exits shadow 01:48:20 - 278° (W) 2,010 -0.6 -12.3°
Reaches altitude 10° 01:49:39 10° 280° (W) 1,468 -1.3 -12.2°
Maximum altitude 01:52:56 73° 5° (N) 429 -3.6 -11.8°
Drops below altitude 10° 01:56:13 10° 91° (E) 1,462 -0.5 -11.5°
Sets 01:58:18 0° 94° (E) 2,320 0.5 -11.3°
